TimeCDT,TemperatureF,Dew PointF,Humidity,Sea Level PressureIn,VisibilityMPH,Wind Direction,Wind SpeedMPH,Gust SpeedMPH,PrecipitationIn,Events,Conditions,WindDirDegrees,DateUTC
12:15 AM,70.2,60.8,72,29.67,10.0,SSE,11.5,23.0,N/A,,Clear,150,2013-04-08 05:15:00
12:35 AM,69.8,60.8,73,29.67,10.0,SSE,13.8,21.9,N/A,,Clear,150,2013-04-08 05:35:00
12:55 AM,69.1,60.4,74,29.68,10.0,SSE,11.5,17.3,N/A,,Clear,150,2013-04-08 05:55:00
1:15 AM,68.5,60.4,75,29.68,10.0,SSE,11.5,20.7,N/A,,Clear,150,2013-04-08 06:15:00
1:35 AM,68.2,60.3,76,29.68,10.0,SSE,11.5,18.4,N/A,,Clear,160,2013-04-08 06:35:00
1:55 AM,68.0,60.1,76,29.68,10.0,SSE,13.8,19.6,N/A,,Clear,160,2013-04-08 06:55:00
2:15 AM,67.1,60.1,78,29.67,10.0,SSE,11.5,19.6,N/A,,Clear,150,2013-04-08 07:15:00
2:35 AM,66.7,60.1,79,29.67,10.0,SSE,11.5,19.6,N/A,,Clear,150,2013-04-08 07:35:00
2:55 AM,66.2,59.9,80,29.67,10.0,SSE,11.5,19.6,N/A,,Clear,160,2013-04-08 07:55:00
3:15 AM,65.5,59.9,82,29.66,10.0,SSE,11.5,19.6,N/A,,Clear,160,2013-04-08 08:15:00
3:35 AM,64.9,59.5,83,29.66,10.0,SSE,12.7,18.4,N/A,,Clear,160,2013-04-08 08:35:00
3:55 AM,64.6,59.5,84,29.66,10.0,SSE,11.5,20.7,N/A,,Clear,160,2013-04-08 08:55:00
4:15 AM,64.4,59.5,84,29.66,10.0,SSE,11.5,-,N/A,,Clear,160,2013-04-08 09:15:00
4:35 AM,64.4,59.5,84,29.65,10.0,SSE,9.2,16.1,N/A,,Clear,160,2013-04-08 09:35:00
4:55 AM,64.6,59.9,85,29.65,10.0,SSE,11.5,-,N/A,,Clear,160,2013-04-08 09:55:00
5:15 AM,64.6,59.9,85,29.65,10.0,SSE,9.2,20.7,N/A,,Clear,160,2013-04-08 10:15:00
5:35 AM,64.9,59.9,84,29.64,10.0,SSE,12.7,18.4,N/A,,Scattered Clouds,160,2013-04-08 10:35:00
5:55 AM,65.3,59.9,83,29.65,10.0,SSE,11.5,17.3,N/A,,Clear,160,2013-04-08 10:55:00
6:15 AM,64.9,60.1,84,29.65,10.0,SSE,11.5,16.1,N/A,,Clear,160,2013-04-08 11:15:00
6:35 AM,64.9,60.1,84,29.66,10.0,SSE,8.1,-,N/A,,Clear,160,2013-04-08 11:35:00
6:55 AM,64.8,60.1,85,29.66,10.0,SSE,9.2,-,N/A,,Clear,150,2013-04-08 11:55:00
7:15 AM,64.9,60.3,85,29.66,10.0,SSE,10.4,16.1,N/A,,Clear,150,2013-04-08 12:15:00
7:35 AM,65.1,60.1,84,29.66,10.0,SSE,9.2,-,N/A,,Clear,150,2013-04-08 12:35:00
7:55 AM,65.7,60.3,83,29.67,10.0,SSE,9.2,-,N/A,,Scattered Clouds,160,2013-04-08 12:55:00
8:15 AM,66.2,60.4,82,29.68,10.0,SSE,9.2,16.1,N/A,,Mostly Cloudy,160,2013-04-08 13:15:00
8:35 AM,67.1,60.6,80,29.68,10.0,SSE,13.8,17.3,N/A,,Overcast,160,2013-04-08 13:35:00
8:55 AM,67.3,60.6,79,29.67,10.0,SSE,11.5,20.7,N/A,,Overcast,150,2013-04-08 13:55:00
9:15 AM,68.2,60.6,77,29.68,10.0,SSE,10.4,18.4,N/A,,Overcast,160,2013-04-08 14:15:00
9:35 AM,68.9,60.8,75,29.68,10.0,SSE,10.4,20.7,N/A,,Overcast,160,2013-04-08 14:35:00
9:55 AM,69.4,60.8,74,29.68,10.0,SSE,15.0,21.9,N/A,,Overcast,160,2013-04-08 14:55:00
10:15 AM,70.5,60.6,71,29.68,10.0,SSE,15.0,21.9,N/A,,Mostly Cloudy,160,2013-04-08 15:15:00
10:35 AM,72.7,60.6,66,29.69,10.0,South,16.1,23.0,N/A,,Mostly Cloudy,180,2013-04-08 15:35:00
10:55 AM,73.8,60.8,64,29.69,10.0,South,15.0,18.4,N/A,,Scattered Clouds,170,2013-04-08 15:55:00
11:15 AM,74.5,60.8,62,29.69,10.0,South,17.3,23.0,N/A,,Scattered Clouds,170,2013-04-08 16:15:00
11:35 AM,76.5,60.8,58,29.68,10.0,South,15.0,20.7,N/A,,Scattered Clouds,170,2013-04-08 16:35:00
11:55 AM,77.0,60.8,57,29.68,10.0,South,13.8,19.6,N/A,,Clear,170,2013-04-08 16:55:00
12:15 PM,78.3,60.4,54,29.68,10.0,South,13.8,20.7,N/A,,Clear,180,2013-04-08 17:15:00
12:35 PM,78.8,60.8,54,29.67,10.0,South,11.5,21.9,N/A,,Clear,170,2013-04-08 17:35:00
12:55 PM,79.5,60.6,52,29.66,10.0,South,16.1,24.2,N/A,,Clear,190,2013-04-08 17:55:00
1:15 PM,79.9,60.8,52,29.65,10.0,SSE,17.3,23.0,N/A,,Clear,150,2013-04-08 18:15:00
1:35 PM,79.0,61.0,54,29.65,10.0,SSE,17.3,21.9,N/A,,Scattered Clouds,160,2013-04-08 18:35:00
1:55 PM,78.6,61.0,55,29.65,10.0,South,16.1,23.0,N/A,,Mostly Cloudy,170,2013-04-08 18:55:00
2:15 PM,77.4,61.0,57,29.64,10.0,SSE,15.0,23.0,N/A,,Overcast,160,2013-04-08 19:15:00
2:35 PM,76.3,61.0,59,29.64,10.0,SSE,12.7,19.6,N/A,,Overcast,160,2013-04-08 19:35:00
2:55 PM,75.4,60.8,60,29.64,10.0,SSE,11.5,23.0,N/A,,Overcast,150,2013-04-08 19:55:00
3:15 PM,74.3,61.0,63,29.63,10.0,SSE,9.2,20.7,N/A,,Overcast,150,2013-04-08 20:15:00
3:35 PM,74.7,61.0,62,29.62,10.0,SE,15.0,20.7,N/A,,Overcast,140,2013-04-08 20:35:00
3:55 PM,74.5,61.0,63,29.61,10.0,SE,10.4,24.2,N/A,,Overcast,140,2013-04-08 20:55:00
4:15 PM,75.2,61.2,62,29.61,10.0,SSE,17.3,23.0,N/A,,Overcast,160,2013-04-08 21:15:00
4:35 PM,75.6,61.3,61,29.60,10.0,SSE,11.5,19.6,N/A,,Overcast,150,2013-04-08 21:35:00
4:55 PM,75.7,61.3,61,29.59,10.0,SSE,12.7,19.6,N/A,,Overcast,160,2013-04-08 21:55:00
5:15 PM,76.5,61.2,59,29.59,10.0,SSE,12.7,23.0,N/A,,Overcast,150,2013-04-08 22:15:00
5:35 PM,78.3,61.2,56,29.57,10.0,SSE,12.7,24.2,N/A,,Mostly Cloudy,150,2013-04-08 22:35:00
5:55 PM,77.4,61.3,58,29.56,10.0,SE,17.3,25.3,N/A,,Scattered Clouds,140,2013-04-08 22:55:00
6:15 PM,77.7,61.9,58,29.57,10.0,SE,16.1,27.6,N/A,,Scattered Clouds,140,2013-04-08 23:15:00
6:35 PM,76.6,62.1,61,29.57,10.0,SE,16.1,25.3,N/A,,Scattered Clouds,140,2013-04-08 23:35:00
6:55 PM,75.9,62.2,62,29.57,10.0,SSE,21.9,29.9,N/A,,Mostly Cloudy,150,2013-04-08 23:55:00
7:15 PM,74.5,62.8,67,29.58,10.0,SE,19.6,25.3,N/A,,Mostly Cloudy,140,2013-04-09 00:15:00
7:35 PM,73.0,63.0,71,29.59,10.0,SE,15.0,23.0,N/A,,Overcast,140,2013-04-09 00:35:00
7:55 PM,72.3,63.3,73,29.59,10.0,SSE,18.4,27.6,N/A,,Overcast,150,2013-04-09 00:55:00
8:15 PM,71.4,63.1,75,29.60,10.0,SE,11.5,21.9,N/A,,Scattered Clouds,140,2013-04-09 01:15:00
8:35 PM,70.7,63.5,78,29.60,10.0,SE,15.0,23.0,N/A,,Scattered Clouds,140,2013-04-09 01:35:00
8:55 PM,70.3,63.5,79,29.61,10.0,SE,11.5,21.9,N/A,,Scattered Clouds,140,2013-04-09 01:55:00
9:15 PM,69.8,63.5,80,29.61,10.0,SE,17.3,-,N/A,,Scattered Clouds,140,2013-04-09 02:15:00
9:35 PM,70.3,63.5,79,29.61,10.0,SSE,16.1,27.6,N/A,,Scattered Clouds,150,2013-04-09 02:35:00
9:55 PM,70.7,63.5,78,29.62,10.0,SSE,15.0,27.6,N/A,,Mostly Cloudy,150,2013-04-09 02:55:00
10:15 PM,70.7,63.7,78,29.63,10.0,SSE,13.8,26.5,N/A,,Mostly Cloudy,150,2013-04-09 03:15:00
10:35 PM,70.7,63.7,78,29.63,10.0,SE,12.7,23.0,N/A,,Overcast,140,2013-04-09 03:35:00
10:55 PM,70.3,63.7,79,29.63,10.0,SE,11.5,19.6,N/A,,Overcast,140,2013-04-09 03:55:00
11:15 PM,70.2,63.5,79,29.62,10.0,SE,16.1,25.3,N/A,,Overcast,140,2013-04-09 04:15:00
11:35 PM,69.8,63.1,79,29.62,10.0,SE,13.8,20.7,N/A,,Mostly Cloudy,140,2013-04-09 04:35:00
11:55 PM,69.6,62.6,78,29.62,10.0,SE,13.8,24.2,N/A,,Scattered Clouds,140,2013-04-09 04:55:00